TimeAKDT,TemperatureF,Dew PointF,Humidity,Sea Level PressureIn,VisibilityMPH,Wind Direction,Wind SpeedMPH,Gust SpeedMPH,PrecipitationIn,Events,Conditions,WindDirDegrees,DateUTC
12:53 AM,61.0,50.0,67,30.16,10.0,Calm,Calm,-,N/A,,Overcast,0,2014-08-02 08:53:00
1:53 AM,59.0,48.9,69,30.16,10.0,SE,3.5,-,N/A,,Mostly Cloudy,140,2014-08-02 09:53:00
2:53 AM,57.0,48.9,74,30.15,10.0,Calm,Calm,-,N/A,,Mostly Cloudy,0,2014-08-02 10:53:00
3:53 AM,55.9,48.0,75,30.15,10.0,Calm,Calm,-,N/A,,Mostly Cloudy,0,2014-08-02 11:53:00
4:53 AM,55.0,48.0,77,30.15,10.0,Calm,Calm,-,N/A,,Mostly Cloudy,0,2014-08-02 12:53:00
5:53 AM,55.9,46.9,72,30.14,10.0,Calm,Calm,-,N/A,,Mostly Cloudy,0,2014-08-02 13:53:00
6:53 AM,55.0,46.9,74,30.14,10.0,Calm,Calm,-,N/A,,Mostly Cloudy,0,2014-08-02 14:53:00
7:53 AM,55.9,48.0,75,30.14,10.0,Calm,Calm,-,N/A,,Mostly Cloudy,0,2014-08-02 15:53:00
8:53 AM,57.9,48.0,70,30.13,10.0,Calm,Calm,-,N/A,,Scattered Clouds,0,2014-08-02 16:53:00
9:53 AM,61.0,48.9,64,30.12,10.0,Calm,Calm,-,N/A,,Clear,0,2014-08-02 17:53:00
10:53 AM,62.1,48.9,62,30.11,10.0,Variable,3.5,-,N/A,,Partly Cloudy,0,2014-08-02 18:53:00
11:53 AM,64.0,48.9,58,30.09,10.0,WNW,8.1,-,N/A,,Scattered Clouds,290,2014-08-02 19:53:00
12:53 PM,64.0,50.0,60,30.08,10.0,WNW,5.8,-,N/A,,Clear,290,2014-08-02 20:53:00
1:53 PM,64.9,48.9,56,30.07,10.0,WNW,8.1,-,N/A,,Scattered Clouds,290,2014-08-02 21:53:00
2:53 PM,66.0,48.0,52,30.06,10.0,Variable,6.9,-,N/A,,Clear,0,2014-08-02 22:53:00
3:53 PM,66.9,46.9,49,30.03,10.0,WNW,8.1,-,N/A,,Clear,290,2014-08-02 23:53:00
4:53 PM,68.0,45.0,43,30.01,10.0,West,8.1,-,N/A,,Partly Cloudy,280,2014-08-03 00:53:00
5:53 PM,68.0,46.0,45,29.99,10.0,West,6.9,-,N/A,,Clear,260,2014-08-03 01:53:00
6:53 PM,69.1,45.0,42,29.97,10.0,WNW,6.9,-,N/A,,Partly Cloudy,290,2014-08-03 02:53:00
7:53 PM,68.0,45.0,43,29.96,10.0,NW,6.9,-,N/A,,Partly Cloudy,310,2014-08-03 03:53:00
8:53 PM,66.9,43.0,42,29.95,10.0,West,8.1,-,N/A,,Clear,280,2014-08-03 04:53:00
9:53 PM,64.9,44.1,47,29.95,10.0,West,4.6,-,N/A,,Clear,280,2014-08-03 05:53:00
10:53 PM,61.0,46.9,60,29.96,10.0,Variable,3.5,-,N/A,,Scattered Clouds,0,2014-08-03 06:53:00